| time (UTC) | temp F | wind direction | speed MPH | gust MPH | rain 1hr in | rain 24hr in | rain mn in | humidity % | barometer mb |
| 20260507121027 | 43 | 287 | 1.0 | 4.0 | 0.00 | 0.09 | 0.00 | 93 | 1012.7 |
| 20260507120531 | 42 | 103 | 0.0 | 3.0 | 0.00 | 0.09 | 0.00 | 93 | 1012.4 |
| 20260507120033 | 42 | 103 | 2.0 | 3.0 | 0.00 | 0.09 | 0.00 | 93 | 1012.2 |
| 20260507115524 | 42 | 103 | 0.0 | 0.0 | 0.00 | 0.10 | 0.00 | 94 | 1012.3 |
| 20260507115028 | 41 | 98 | 0.0 | 0.0 | 0.00 | 0.10 | 0.00 | 93 | 1012.3 |
| 20260507114601 | 40 | 97 | 0.0 | 0.0 | 0.00 | 0.10 | 0.00 | 93 | 1012.4 |
| 20260507114045 | 39 | 119 | 0.0 | 0.0 | 0.00 | 0.10 | 0.00 | 93 | 1012.4 |
| 20260507113533 | 38 | 119 | 0.0 | 0.0 | 0.00 | 0.10 | 0.00 | 93 | 1012.5 |
| 20260507113016 | 38 | 119 | 0.0 | 0.0 | 0.00 | 0.10 | 0.00 | 92 | 1012.5 |
| 20260507112546 | 37 | 119 | 0.0 | 0.0 | 0.00 | 0.10 | 0.00 | 92 | 1012.6 |
| 20260507112024 | 37 | 112 | 0.0 | 0.0 | 0.00 | 0.10 | 0.00 | 92 | 1012.6 |
| 20260507111545 | 37 | 115 | 0.0 | 0.0 | 0.00 | 0.10 | 0.00 | 92 | 1012.5 |
| 20260507111042 | 37 | 115 | 0.0 | 0.0 | 0.00 | 0.10 | 0.00 | 91 | 1012.3 |
| 20260507110525 | 37 | 174 | 0.0 | 1.0 | 0.00 | 0.10 | 0.00 | 91 | 1012.2 |
| 20260507110032 | 36 | 218 | 0.0 | 1.0 | 0.00 | 0.10 | 0.00 | 91 | 1012.0 |
| 20260507105521 | 36 | 223 | 0.0 | 0.0 | 0.00 | 0.15 | 0.00 | 91 | 1012.2 |
| 20260507105035 | 36 | 223 | 0.0 | 0.0 | 0.00 | 0.15 | 0.00 | 91 | 1012.1 |
| 20260507104542 | 36 | 223 | 0.0 | 0.0 | 0.00 | 0.15 | 0.00 | 91 | 1012.0 |
| 20260507104029 | 36 | 221 | 0.0 | 0.0 | 0.00 | 0.15 | 0.00 | 91 | 1011.8 |
| 20260507103530 | 36 | 221 | 0.0 | 0.0 | 0.00 | 0.15 | 0.00 | 90 | 1011.8 |
| 20260507103037 | 36 | 219 | 0.0 | 0.0 | 0.00 | 0.15 | 0.00 | 90 | 1011.9 |
| 20260507102537 | 36 | 223 | 0.0 | 0.0 | 0.00 | 0.15 | 0.00 | 90 | 1012.0 |
| 20260507102040 | 36 | 223 | 0.0 | 0.0 | 0.00 | 0.15 | 0.00 | 90 | 1011.9 |
| 20260507101525 | 36 | 223 | 0.0 | 0.0 | 0.00 | 0.15 | 0.00 | 90 | 1012.1 |
| 20260507101031 | 36 | 223 | 0.0 | 0.0 | 0.00 | 0.15 | 0.00 | 90 | 1012.0 |
| 20260507100536 | 36 | 223 | 0.0 | 0.0 | 0.00 | 0.15 | 0.00 | 89 | 1012.0 |
| 20260507100031 | 36 | 258 | 0.0 | 0.0 | 0.00 | 0.15 | 0.00 | 89 | 1012.1 |
| 20260507095534 | 36 | 258 | 0.0 | 0.0 | 0.00 | 0.20 | 0.00 | 90 | 1011.9 |
| 20260507095107 | 36 | 258 | 0.0 | 0.0 | 0.00 | 0.20 | 0.00 | 89 | 1011.9 |
| 20260507094517 | 36 | 258 | 0.0 | 0.0 | 0.00 | 0.20 | 0.00 | 89 | 1011.9 |
| 20260507094018 | 37 | 258 | 0.0 | 0.0 | 0.00 | 0.20 | 0.00 | 89 | 1012.0 |
| 20260507093527 | 37 | 258 | 0.0 | 0.0 | 0.00 | 0.20 | 0.00 | 89 | 1011.8 |
| 20260507093015 | 37 | 258 | 0.0 | 0.0 | 0.00 | 0.20 | 0.00 | 89 | 1011.6 |
| 20260507092527 | 37 | 258 | 0.0 | 0.0 | 0.00 | 0.20 | 0.00 | 89 | 1011.7 |
| 20260507092034 | 37 | 258 | 0.0 | 0.0 | 0.00 | 0.20 | 0.00 | 89 | 1011.9 |
| 20260507091524 | 37 | 258 | 0.0 | 0.0 | 0.00 | 0.20 | 0.00 | 89 | 1012.0 |
| 20260507091018 | 37 | 258 | 0.0 | 0.0 | 0.00 | 0.20 | 0.00 | 89 | 1012.0 |
| 20260507090536 | 37 | 258 | 0.0 | 0.0 | 0.00 | 0.20 | 0.00 | 88 | 1012.0 |
| 20260507090038 | 37 | 258 | 0.0 | 0.0 | 0.00 | 0.20 | 0.00 | 88 | 1011.9 |
| 20260507085537 | 38 | 258 | 0.0 | 0.0 | 0.00 | 0.28 | 0.00 | 88 | 1012.0 |
| 20260507085051 | 38 | 258 | 0.0 | 0.0 | 0.00 | 0.28 | 0.00 | 88 | 1012.0 |
| 20260507084543 | 38 | 258 | 0.0 | 0.0 | 0.00 | 0.28 | 0.00 | 88 | 1012.0 |
| 20260507084050 | 38 | 258 | 0.0 | 0.0 | 0.00 | 0.28 | 0.00 | 88 | 1012.0 |
| 20260507083534 | 38 | 258 | 0.0 | 0.0 | 0.00 | 0.28 | 0.00 | 88 | 1012.0 |
| 20260507083029 | 39 | 258 | 0.0 | 0.0 | 0.00 | 0.28 | 0.00 | 88 | 1011.9 |
| 20260507082535 | 39 | 258 | 0.0 | 0.0 | 0.00 | 0.28 | 0.00 | 87 | 1011.9 |
| 20260507082018 | 39 | 258 | 0.0 | 0.0 | 0.00 | 0.28 | 0.00 | 87 | 1011.7 |
| 20260507081548 | 39 | 258 | 0.0 | 0.0 | 0.00 | 0.28 | 0.00 | 87 | 1011.9 |
| 20260507081038 | 39 | 269 | 0.0 | 0.0 | 0.00 | 0.28 | 0.00 | 87 | 1012.0 |
| 20260507080528 | 40 | 269 | 0.0 | 0.0 | 0.00 | 0.28 | 0.00 | 87 | 1012.0 |
| 20260507080023 | 40 | 269 | 0.0 | 0.0 | 0.00 | 0.28 | 0.00 | 87 | 1012.0 |
| 20260507075528 | 40 | 269 | 0.0 | 0.0 | 0.00 | 0.37 | 0.00 | 87 | 1012.0 |
| 20260507075038 | 40 | 269 | 0.0 | 0.0 | 0.00 | 0.37 | 0.00 | 87 | 1012.0 |
| 20260507074529 | 40 | 269 | 0.0 | 0.0 | 0.00 | 0.37 | 0.00 | 87 | 1012.1 |
| 20260507074042 | 40 | 269 | 0.0 | 0.0 | 0.00 | 0.37 | 0.00 | 87 | 1012.2 |
| 20260507073533 | 41 | 269 | 0.0 | 0.0 | 0.00 | 0.37 | 0.00 | 87 | 1012.2 |
| 20260507073024 | 41 | 269 | 0.0 | 0.0 | 0.00 | 0.37 | 0.00 | 87 | 1012.3 |
| 20260507072537 | 41 | 269 | 0.0 | 0.0 | 0.00 | 0.37 | 0.00 | 87 | 1012.2 |
| 20260507072030 | 41 | 269 | 0.0 | 0.0 | 0.00 | 0.37 | 0.00 | 87 | 1012.2 |
| 20260507071549 | 41 | 269 | 0.0 | 0.0 | 0.00 | 0.37 | 0.00 | 88 | 1012.1 |
| 20260507071025 | 41 | 269 | 0.0 | 0.0 | 0.00 | 0.37 | 0.00 | 88 | 1012.1 |
| 20260507070538 | 42 | 269 | 0.0 | 0.0 | 0.00 | 0.37 | 0.00 | 88 | 1012.1 |
| 20260507070027 | 42 | 269 | 0.0 | 0.0 | 0.00 | 0.37 | 0.00 | 88 | 1012.0 |
| 20260507065543 | 42 | 269 | 0.0 | 0.0 | 0.00 | 0.49 | 0.00 | 88 | 1012.0 |
| 20260507065025 | 42 | 269 | 0.0 | 0.0 | 0.00 | 0.49 | 0.00 | 88 | 1012.0 |
| 20260507064518 | 42 | 269 | 0.0 | 0.0 | 0.00 | 0.49 | 0.00 | 88 | 1012.0 |
| 20260507064029 | 42 | 269 | 0.0 | 0.0 | 0.00 | 0.49 | 0.00 | 89 | 1012.0 |
| 20260507063521 | 42 | 269 | 0.0 | 0.0 | 0.00 | 0.49 | 0.00 | 89 | 1011.9 |
| 20260507063031 | 42 | 269 | 0.0 | 0.0 | 0.00 | 0.49 | 0.00 | 89 | 1011.8 |
| 20260507062521 | 42 | 269 | 0.0 | 0.0 | 0.00 | 0.49 | 0.00 | 89 | 1011.7 |
| 20260507062032 | 42 | 269 | 0.0 | 0.0 | 0.00 | 0.49 | 0.00 | 89 | 1011.9 |
| 20260507061524 | 42 | 269 | 0.0 | 0.0 | 0.00 | 0.49 | 0.00 | 90 | 1011.9 |
| 20260507061036 | 43 | 269 | 0.0 | 0.0 | 0.00 | 0.49 | 0.00 | 90 | 1012.1 |
| 20260507060536 | 43 | 269 | 0.0 | 0.0 | 0.00 | 0.49 | 0.00 | 90 | 1012.2 |
| 20260507060022 | 42 | 269 | 0.0 | 0.0 | 0.00 | 0.49 | 0.00 | 90 | 1012.3 |
| 20260507055541 | 42 | 269 | 0.0 | 0.0 | 0.00 | 0.55 | 0.00 | 90 | 1012.3 |
| 20260507055056 | 42 | 269 | 0.0 | 2.0 | 0.00 | 0.55 | 0.00 | 90 | 1012.3 |
| 20260507054524 | 43 | 269 | 0.0 | 2.0 | 0.00 | 0.55 | 0.00 | 91 | 1012.3 |
| 20260507054043 | 43 | 267 | 0.0 | 3.0 | 0.00 | 0.55 | 0.00 | 91 | 1012.4 |
| 20260507053522 | 43 | 286 | 0.0 | 4.0 | 0.00 | 0.55 | 0.00 | 91 | 1012.4 |
| 20260507053050 | 43 | 290 | 2.0 | 4.0 | 0.00 | 0.55 | 0.00 | 91 | 1012.4 |
| 20260507052526 | 43 | 280 | 1.0 | 6.0 | 0.00 | 0.55 | 0.00 | 91 | 1012.5 |
| 20260507052052 | 43 | 274 | 2.0 | 6.0 | 0.00 | 0.55 | 0.00 | 91 | 1012.5 |
| 20260507051523 | 43 | 261 | 0.0 | 4.0 | 0.00 | 0.55 | 0.00 | 92 | 1012.5 |
| 20260507051046 | 43 | 284 | 0.0 | 3.0 | 0.00 | 0.55 | 0.00 | 92 | 1012.5 |
| 20260507050516 | 43 | 283 | 0.0 | 3.0 | 0.00 | 0.55 | 0.00 | 92 | 1012.6 |
| 20260507050048 | 43 | 269 | 0.0 | 0.0 | 0.00 | 0.55 | 0.00 | 92 | 1012.6 |
| 20260507045523 | 43 | 273 | 0.0 | 4.0 | 0.00 | 0.65 | 0.00 | 92 | 1012.6 |
| 20260507045050 | 43 | 277 | 2.0 | 4.0 | 0.00 | 0.65 | 0.00 | 92 | 1012.6 |
| 20260507044522 | 43 | 265 | 0.0 | 3.0 | 0.00 | 0.65 | 0.00 | 92 | 1012.5 |
| 20260507044049 | 43 | 275 | 0.0 | 4.0 | 0.00 | 0.65 | 0.00 | 92 | 1012.5 |
| 20260507043543 | 43 | 272 | 2.0 | 4.0 | 0.00 | 0.65 | 0.00 | 92 | 1012.5 |
| 20260507043023 | 43 | 287 | 1.0 | 4.0 | 0.00 | 0.65 | 0.00 | 92 | 1012.4 |
| 20260507042544 | 43 | 265 | 2.0 | 4.0 | 0.00 | 0.65 | 0.00 | 92 | 1012.3 |
| 20260507042026 | 43 | 261 | 1.0 | 4.0 | 0.00 | 0.65 | 0.00 | 92 | 1012.4 |
| 20260507041516 | 43 | 258 | 1.0 | 4.0 | 0.00 | 0.65 | 0.00 | 92 | 1012.4 |
| 20260507041032 | 43 | 254 | 0.0 | 4.0 | 0.00 | 0.65 | 0.00 | 92 | 1012.4 |
| 20260507040525 | 43 | 276 | 0.0 | 5.0 | 0.00 | 0.65 | 0.00 | 92 | 1012.4 |
| 20260507040036 | 43 | 269 | 0.0 | 5.0 | 0.00 | 0.65 | 0.00 | 92 | 1012.3 |
| 20260507035526 | 43 | 267 | 0.0 | 4.0 | 0.00 | 0.73 | 0.65 | 92 | 1012.3 |
| 20260507035038 | 43 | 267 | 2.0 | 4.0 | 0.00 | 0.73 | 0.65 | 92 | 1012.2 |
| 20260507034532 | 43 | 279 | 2.0 | 5.0 | 0.00 | 0.73 | 0.65 | 92 | 1012.3 |
| 20260507034035 | 43 | 257 | 2.0 | 6.0 | 0.00 | 0.73 | 0.65 | 92 | 1012.2 |
| 20260507033526 | 44 | 271 | 3.0 | 6.0 | 0.00 | 0.73 | 0.65 | 92 | 1012.1 |
| 20260507033050 | 44 | 285 | 1.0 | 4.0 | 0.00 | 0.73 | 0.65 | 92 | 1012.1 |
| 20260507032526 | 44 | 285 | 2.0 | 4.0 | 0.00 | 0.73 | 0.65 | 92 | 1012.1 |
| 20260507032046 | 44 | 274 | 1.0 | 3.0 | 0.00 | 0.73 | 0.65 | 92 | 1012.0 |
| 20260507031521 | 44 | 264 | 0.0 | 4.0 | 0.00 | 0.73 | 0.65 | 92 | 1012.0 |
| 20260507031059 | 44 | 264 | 2.0 | 4.0 | 0.00 | 0.73 | 0.65 | 92 | 1012.0 |
| 20260507030524 | 44 | 260 | 2.0 | 3.0 | 0.00 | 0.73 | 0.65 | 92 | 1011.9 |
| 20260507030017 | 44 | 267 | 0.0 | 4.0 | 0.00 | 0.81 | 0.65 | 92 | 1011.9 |
| 20260507025548 | 44 | 267 | 1.0 | 4.0 | 0.00 | 0.81 | 0.65 | 92 | 1011.9 |
| 20260507025037 | 44 | 274 | 1.0 | 4.0 | 0.00 | 0.81 | 0.65 | 92 | 1011.9 |
| 20260507024601 | 44 | 268 | 0.0 | 5.0 | 0.00 | 0.81 | 0.65 | 92 | 1012.0 |
| 20260507024028 | 44 | 269 | 3.0 | 5.0 | 0.00 | 0.81 | 0.65 | 92 | 1011.9 |
| 20260507023534 | 44 | 265 | 0.0 | 4.0 | 0.00 | 0.81 | 0.65 | 92 | 1011.9 |
| 20260507023046 | 44 | 277 | 2.0 | 4.0 | 0.00 | 0.81 | 0.65 | 92 | 1011.9 |
| 20260507022527 | 44 | 269 | 2.0 | 4.0 | 0.00 | 0.81 | 0.65 | 92 | 1012.0 |
| 20260507022033 | 44 | 277 | 0.0 | 3.0 | 0.00 | 0.81 | 0.65 | 91 | 1012.0 |
| 20260507021544 | 44 | 277 | 1.0 | 3.0 | 0.00 | 0.81 | 0.65 | 91 | 1012.1 |
| 20260507021021 | 44 | 267 | 0.0 | 5.0 | 0.00 | 0.81 | 0.65 | 91 | 1012.1 |
| 20260507020527 | 44 | 268 | 1.0 | 5.0 | 0.00 | 0.81 | 0.65 | 91 | 1012.2 |
| 20260507020021 | 44 | 269 | 1.0 | 5.0 | 0.00 | 0.81 | 0.65 | 91 | 1012.1 |
| 20260507015540 | 44 | 243 | 1.0 | 5.0 | 0.00 | 0.84 | 0.65 | 91 | 1012.2 |
| 20260507015028 | 44 | 283 | 1.0 | 5.0 | 0.00 | 0.84 | 0.65 | 91 | 1012.0 |
| 20260507014531 | 44 | 290 | 1.0 | 5.0 | 0.01 | 0.84 | 0.65 | 91 | 1011.9 |
| 20260507014020 | 44 | 294 | 2.0 | 7.0 | 0.01 | 0.84 | 0.65 | 91 | 1011.9 |
| 20260507013541 | 44 | 321 | 2.0 | 7.0 | 0.01 | 0.84 | 0.65 | 91 | 1012.0 |
| 20260507013029 | 45 | 293 | 2.0 | 8.0 | 0.01 | 0.84 | 0.65 | 91 | 1012.1 |
| 20260507012538 | 45 | 298 | 4.0 | 8.0 | 0.01 | 0.84 | 0.65 | 90 | 1012.1 |
| 20260507012114 | 45 | 296 | 3.0 | 7.0 | 0.01 | 0.84 | 0.65 | 90 | 1012.0 |
| 20260507011604 | 45 | 289 | 0.0 | 4.0 | 0.02 | 0.84 | 0.65 | 90 | 1011.9 |
| 20260507011038 | 45 | 277 | 0.0 | 4.0 | 0.03 | 0.84 | 0.65 | 90 | 1011.8 |
| 20260507010542 | 45 | 317 | 2.0 | 8.0 | 0.03 | 0.84 | 0.65 | 89 | 1011.7 |
| 20260507010035 | 45 | 306 | 3.0 | 8.0 | 0.04 | 0.84 | 0.65 | 89 | 1011.5 |
| 20260507005039 | 47 | 329 | 5.0 | 12.0 | 0.05 | 0.92 | 0.65 | 89 | 1011.2 |
| 20260507004547 | 47 | 277 | 2.0 | 4.0 | 0.04 | 0.91 | 0.64 | 90 | 1011.2 |
| 20260507004037 | 47 | 342 | 2.0 | 4.0 | 0.04 | 0.91 | 0.64 | 90 | 1010.9 |
| 20260507003620 | 48 | 355 | 0.0 | 3.0 | 0.04 | 0.91 | 0.64 | 89 | 1010.8 |
| 20260507003025 | 48 | 336 | 1.0 | 4.0 | 0.04 | 0.91 | 0.64 | 89 | 1010.7 |
| 20260507002554 | 48 | 336 | 0.0 | 5.0 | 0.04 | 0.91 | 0.64 | 89 | 1010.8 |
| 20260507002112 | 48 | 343 | 3.0 | 5.0 | 0.04 | 0.91 | 0.64 | 88 | 1010.8 |
| 20260507001520 | 48 | 277 | 1.0 | 6.0 | 0.02 | 0.89 | 0.62 | 87 | 1010.8 |
| 20260507001109 | 49 | 340 | 2.0 | 5.0 | 0.02 | 0.89 | 0.62 | 87 | 1010.6 |
| 20260507000535 | 49 | 5 | 2.0 | 3.0 | 0.02 | 0.89 | 0.62 | 86 | 1010.5 |
| 20260507000038 | 49 | 5 | 1.0 | 3.0 | 0.01 | 0.88 | 0.61 | 86 | 1010.5 |
| 20260506235550 | 49 | 13 | 2.0 | 3.0 | 0.00 | 0.96 | 0.60 | 86 | 1010.5 |
| 20260506235033 | 49 | 69 | 2.0 | 3.0 | 0.00 | 0.96 | 0.60 | 85 | 1010.4 |
| 20260506234533 | 49 | 69 | 0.0 | 1.0 | 0.00 | 0.96 | 0.60 | 85 | 1010.3 |
| 20260506233537 | 49 | 58 | 0.0 | 1.0 | 0.00 | 0.96 | 0.60 | 85 | 1010.0 |
| 20260506232522 | 49 | 339 | 0.0 | 0.0 | 0.00 | 0.96 | 0.60 | 85 | 1010.1 |
| 20260506232017 | 49 | 339 | 0.0 | 0.0 | 0.00 | 0.96 | 0.60 | 85 | 1010.1 |
| 20260506231551 | 49 | 339 | 0.0 | 0.0 | 0.00 | 0.96 | 0.60 | 85 | 1010.1 |
| 20260506231056 | 49 | 339 | 0.0 | 0.0 | 0.00 | 0.96 | 0.60 | 84 | 1010.1 |
| 20260506230553 | 49 | 339 | 0.0 | 0.0 | 0.00 | 0.96 | 0.60 | 84 | 1010.0 |
| 20260506230029 | 49 | 339 | 0.0 | 0.0 | 0.00 | 0.96 | 0.60 | 84 | 1010.0 |
| 20260506225544 | 49 | 329 | 0.0 | 0.0 | 0.00 | 0.96 | 0.60 | 84 | 1009.9 |
| 20260506224748 | 49 | 329 | 0.0 | 0.0 | 0.00 | 0.96 | 0.60 | 84 | 1009.8 |
| 20260506224106 | 49 | 321 | 0.0 | 0.0 | 0.00 | 0.96 | 0.60 | 84 | 1009.8 |
| 20260506223605 | 49 | 321 | 0.0 | 1.0 | 0.00 | 0.96 | 0.60 | 84 | 1009.9 |
| 20260506223024 | 49 | 313 | 0.0 | 3.0 | 0.00 | 0.96 | 0.60 | 84 | 1009.8 |
| 20260506222048 | 49 | 311 | 0.0 | 2.0 | 0.00 | 0.96 | 0.60 | 84 | 1009.8 |
| 20260506221529 | 49 | 309 | 0.0 | 0.0 | 0.00 | 0.96 | 0.60 | 84 | 1009.7 |
| 20260506221042 | 49 | 308 | 0.0 | 0.0 | 0.00 | 0.96 | 0.60 | 84 | 1009.6 |
| 20260506220551 | 49 | 308 | 0.0 | 0.0 | 0.00 | 0.96 | 0.60 | 84 | 1009.6 |
| 20260506220127 | 49 | 308 | 0.0 | 0.0 | 0.00 | 0.96 | 0.60 | 84 | 1009.7 |
| 20260506215538 | 49 | 308 | 0.0 | 0.0 | 0.00 | 0.96 | 0.60 | 83 | 1009.6 |
| 20260506215037 | 49 | 306 | 0.0 | 0.0 | 0.00 | 0.96 | 0.60 | 83 | 1009.6 |
| 20260506214545 | 49 | 306 | 0.0 | 2.0 | 0.00 | 0.96 | 0.60 | 83 | 1009.8 |
| 20260506213533 | 49 | 306 | 0.0 | 3.0 | 0.00 | 0.96 | 0.60 | 82 | 1010.0 |
| 20260506213037 | 49 | 326 | 0.0 | 3.0 | 0.00 | 0.96 | 0.60 | 82 | 1009.9 |
| 20260506212526 | 49 | 336 | 2.0 | 3.0 | 0.00 | 0.96 | 0.60 | 82 | 1009.8 |
| 20260506212046 | 49 | 336 | 0.0 | 0.0 | 0.00 | 0.96 | 0.60 | 82 | 1009.7 |
| 20260506211551 | 49 | 336 | 0.0 | 4.0 | 0.00 | 0.96 | 0.60 | 82 | 1009.7 |
| 20260506211036 | 49 | 336 | 0.0 | 4.0 | 0.00 | 0.96 | 0.60 | 82 | 1009.7 |
| 20260506210627 | 49 | 336 | 0.0 | 3.0 | 0.00 | 0.96 | 0.60 | 83 | 1009.7 |
| 20260506210023 | 49 | 336 | 0.0 | 0.0 | 0.00 | 0.96 | 0.60 | 83 | 1009.7 |
| 20260506205544 | 49 | 336 | 0.0 | 0.0 | 0.00 | 0.96 | 0.60 | 83 | 1009.6 |
| 20260506205022 | 49 | 338 | 0.0 | 5.0 | 0.00 | 0.96 | 0.60 | 83 | 1009.5 |
| 20260506204049 | 49 | 308 | 0.0 | 0.0 | 0.00 | 0.96 | 0.60 | 84 | 1009.5 |
| 20260506203641 | 49 | 273 | 0.0 | 2.0 | 0.00 | 0.96 | 0.60 | 84 | 1009.7 |
| 20260506203027 | 48 | 273 | 0.0 | 5.0 | 0.00 | 0.96 | 0.60 | 83 | 1009.8 |
| 20260506202538 | 48 | 274 | 2.0 | 5.0 | 0.00 | 0.96 | 0.60 | 84 | 1009.8 |
| 20260506202035 | 48 | 277 | 0.0 | 5.0 | 0.00 | 0.96 | 0.60 | 85 | 1009.7 |
| 20260506201557 | 48 | 280 | 1.0 | 5.0 | 0.00 | 0.96 | 0.60 | 85 | 1009.7 |
| 20260506201032 | 48 | 296 | 0.0 | 5.0 | 0.00 | 0.96 | 0.60 | 86 | 1009.7 |
| 20260506200637 | 48 | 309 | 2.0 | 5.0 | 0.00 | 0.96 | 0.60 | 86 | 1009.8 |
| 20260506200053 | 48 | 360 | 1.0 | 5.0 | 0.00 | 0.96 | 0.60 | 86 | 1009.7 |
| 20260506195612 | 48 | 343 | 2.0 | 6.0 | 0.00 | 0.96 | 0.60 | 87 | 1009.7 |
| 20260506195036 | 48 | 355 | 4.0 | 6.0 | 0.00 | 0.96 | 0.60 | 87 | 1009.6 |
| 20260506194549 | 48 | 340 | 1.0 | 4.0 | 0.00 | 0.96 | 0.60 | 88 | 1009.4 |
| 20260506194046 | 47 | 350 | 2.0 | 4.0 | 0.00 | 0.96 | 0.60 | 88 | 1009.5 |
| 20260506193616 | 47 | 12 | 1.0 | 4.0 | 0.00 | 0.96 | 0.60 | 89 | 1009.5 |
| 20260506193030 | 47 | 355 | 1.0 | 6.0 | 0.00 | 0.96 | 0.60 | 88 | 1009.5 |
| 20260506192056 | 47 | 337 | 0.0 | 6.0 | 0.00 | 0.96 | 0.60 | 89 | 1009.7 |
| 20260506191529 | 46 | 332 | 3.0 | 6.0 | 0.00 | 0.96 | 0.60 | 89 | 1009.7 |
| 20260506191037 | 46 | 343 | 5.0 | 6.0 | 0.00 | 0.96 | 0.60 | 89 | 1009.7 |
| 20260506190612 | 46 | 345 | 4.0 | 6.0 | 0.00 | 0.96 | 0.60 | 90 | 1009.7 |
| 20260506190224 | 46 | 11 | 3.0 | 6.0 | 0.00 | 0.96 | 0.60 | 90 | 1009.7 |
| 20260506185603 | 46 | 334 | 3.0 | 8.0 | 0.00 | 0.96 | 0.60 | 90 | 1009.7 |
| 20260506185053 | 46 | 323 | 4.0 | 8.0 | 0.00 | 0.96 | 0.60 | 90 | 1009.6 |
| 20260506184525 | 46 | 323 | 5.0 | 10.0 | 0.00 | 0.96 | 0.60 | 91 | 1009.6 |
| 20260506184042 | 46 | 19 | 5.0 | 10.0 | 0.00 | 0.96 | 0.60 | 91 | 1009.5 |
| 20260506183556 | 46 | 355 | 6.0 | 9.0 | 0.00 | 0.96 | 0.60 | 91 | 1009.6 |
| 20260506183022 | 46 | 336 | 6.0 | 10.0 | 0.00 | 0.96 | 0.60 | 91 | 1009.6 |
| 20260506182639 | 46 | 332 | 6.0 | 10.0 | 0.00 | 0.96 | 0.60 | 91 | 1009.6 |
| 20260506182019 | 46 | 332 | 6.0 | 10.0 | 0.00 | 0.96 | 0.60 | 91 | 1009.6 |
| 20260506181540 | 46 | 355 | 7.0 | 10.0 | 0.00 | 0.96 | 0.60 | 91 | 1009.6 |
| 20260506181040 | 46 | 330 | 5.0 | 8.0 | 0.00 | 0.96 | 0.60 | 92 | 1009.6 |
| 20260506180558 | 46 | 339 | 5.0 | 9.0 | 0.00 | 0.96 | 0.60 | 91 | 1009.7 |
| 20260506180122 | 46 | 341 | 5.0 | 9.0 | 0.00 | 0.96 | 0.60 | 92 | 1009.8 |
| 20260506175532 | 46 | 332 | 4.0 | 8.0 | 0.00 | 0.96 | 0.60 | 92 | 1009.6 |
| 20260506175034 | 46 | 336 | 4.0 | 8.0 | 0.00 | 0.96 | 0.60 | 92 | 1009.4 |
| 20260506174539 | 46 | 325 | 3.0 | 7.0 | 0.00 | 0.96 | 0.60 | 92 | 1009.3 |
| 20260506174045 | 46 | 329 | 3.0 | 9.0 | 0.00 | 0.96 | 0.60 | 92 | 1009.1 |
| 20260506173614 | 46 | 347 | 6.0 | 9.0 | 0.00 | 0.96 | 0.60 | 92 | 1009.1 |
| 20260506173044 | 46 | 319 | 4.0 | 8.0 | 0.00 | 0.96 | 0.60 | 92 | 1009.0 |
| 20260506172527 | 46 | 337 | 3.0 | 8.0 | 0.00 | 0.96 | 0.60 | 93 | 1008.9 |
| 20260506172047 | 46 | 346 | 5.0 | 9.0 | 0.00 | 0.96 | 0.60 | 93 | 1008.8 |
| 20260506171536 | 46 | 355 | 4.0 | 7.0 | 0.00 | 0.96 | 0.60 | 93 | 1008.7 |
| 20260506171039 | 45 | 324 | 4.0 | 8.0 | 0.00 | 0.96 | 0.60 | 93 | 1008.8 |
| 20260506170605 | 45 | 346 | 4.0 | 8.0 | 0.00 | 0.96 | 0.60 | 93 | 1008.8 |
| 20260506170033 | 45 | 331 | 4.0 | 8.0 | 0.00 | 0.96 | 0.60 | 93 | 1008.9 |
| 20260506165548 | 45 | 333 | 4.0 | 7.0 | 0.00 | 0.96 | 0.60 | 93 | 1008.8 |
| 20260506165029 | 45 | 334 | 4.0 | 8.0 | 0.00 | 0.96 | 0.60 | 94 | 1008.9 |
| 20260506164538 | 45 | 346 | 5.0 | 9.0 | 0.00 | 0.96 | 0.60 | 94 | 1008.8 |
| 20260506164139 | 45 | 355 | 5.0 | 9.0 | 0.00 | 0.96 | 0.60 | 94 | 1008.7 |
| 20260506163548 | 45 | 360 | 5.0 | 8.0 | 0.00 | 0.96 | 0.60 | 94 | 1008.6 |
| 20260506163024 | 45 | 355 | 4.0 | 8.0 | 0.00 | 0.96 | 0.60 | 94 | 1008.6 |
| 20260506162544 | 45 | 355 | 4.0 | 7.0 | 0.00 | 0.96 | 0.60 | 94 | 1008.6 |
| 20260506162047 | 45 | 5 | 4.0 | 8.0 | 0.00 | 0.96 | 0.60 | 94 | 1008.6 |
| 20260506161544 | 45 | 350 | 6.0 | 8.0 | 0.00 | 0.96 | 0.60 | 94 | 1008.6 |
| 20260506161026 | 45 | 327 | 6.0 | 9.0 | 0.00 | 0.96 | 0.60 | 94 | 1008.8 |
| 20260506160612 | 45 | 355 | 7.0 | 9.0 | 0.00 | 0.96 | 0.60 | 94 | 1008.7 |
| 20260506160120 | 45 | 345 | 5.0 | 7.0 | 0.00 | 0.96 | 0.60 | 94 | 1008.8 |
| 20260506155544 | 45 | 20 | 5.0 | 8.0 | 0.00 | 0.96 | 0.60 | 94 | 1008.8 |
| 20260506154607 | 45 | 13 | 5.0 | 8.0 | 0.00 | 0.96 | 0.60 | 94 | 1008.7 |
| 20260506154054 | 45 | 355 | 5.0 | 7.0 | 0.00 | 0.96 | 0.60 | 94 | 1008.7 |
| 20260506153534 | 45 | 347 | 5.0 | 7.0 | 0.00 | 0.96 | 0.60 | 94 | 1008.7 |
| 20260506153033 | 45 | 329 | 5.0 | 7.0 | 0.01 | 0.96 | 0.60 | 95 | 1008.7 |
| 20260506152545 | 45 | 33 | 4.0 | 7.0 | 0.01 | 0.96 | 0.60 | 95 | 1008.6 |
| 20260506152149 | 45 | 26 | 4.0 | 6.0 | 0.01 | 0.96 | 0.60 | 95 | 1008.8 |
| 20260506151021 | 45 | 23 | 5.0 | 8.0 | 0.01 | 0.96 | 0.60 | 95 | 1008.7 |
| 20260506150529 | 45 | 344 | 6.0 | 8.0 | 0.01 | 0.96 | 0.60 | 94 | 1008.7 |
| 20260506150029 | 45 | 15 | 5.0 | 7.0 | 0.01 | 0.96 | 0.60 | 95 | 1008.6 |
| 20260506145535 | 45 | 346 | 5.0 | 8.0 | 0.01 | 0.96 | 0.60 | 95 | 1008.7 |
| 20260506145031 | 45 | 351 | 5.0 | 8.0 | 0.02 | 0.96 | 0.60 | 95 | 1008.5 |
| 20260506144540 | 45 | 339 | 3.0 | 6.0 | 0.02 | 0.96 | 0.60 | 95 | 1008.4 |
| 20260506144052 | 45 | 24 | 4.0 | 6.0 | 0.02 | 0.96 | 0.60 | 95 | 1008.3 |
| 20260506142520 | 45 | 11 | 4.0 | 6.0 | 0.01 | 0.95 | 0.59 | 95 | 1008.2 |
| 20260506142028 | 45 | 360 | 4.0 | 6.0 | 0.01 | 0.95 | 0.59 | 95 | 1008.2 |
| 20260506141531 | 45 | 29 | 2.0 | 5.0 | 0.01 | 0.95 | 0.59 | 95 | 1008.2 |
| 20260506141043 | 45 | 19 | 4.0 | 5.0 | 0.01 | 0.95 | 0.59 | 95 | 1008.3 |
| 20260506140533 | 45 | 24 | 3.0 | 5.0 | 0.01 | 0.95 | 0.59 | 95 | 1008.3 |
| 20260506140026 | 45 | 13 | 3.0 | 5.0 | 0.01 | 0.95 | 0.59 | 95 | 1008.4 |
| 20260506135558 | 44 | 17 | 3.0 | 5.0 | 0.01 | 0.95 | 0.59 | 95 | 1008.4 |
| 20260506135049 | 44 | 5 | 3.0 | 5.0 | 0.00 | 0.94 | 0.58 | 95 | 1008.4 |
| 20260506134539 | 44 | 18 | 2.0 | 4.0 | 0.00 | 0.94 | 0.58 | 95 | 1008.3 |
| 20260506134027 | 44 | 355 | 2.0 | 4.0 | 0.00 | 0.94 | 0.58 | 95 | 1008.3 |
| 20260506133534 | 44 | 5 | 1.0 | 4.0 | 0.00 | 0.94 | 0.58 | 95 | 1008.3 |
| 20260506133047 | 44 | 338 | 1.0 | 4.0 | 0.00 | 0.94 | 0.58 | 94 | 1008.3 |
| 20260506132533 | 44 | 27 | 2.0 | 4.0 | 0.00 | 0.94 | 0.58 | 94 | 1008.1 |
| 20260506132056 | 44 | 25 | 0.0 | 5.0 | 0.01 | 0.94 | 0.58 | 94 | 1008.1 |
| 20260506131530 | 44 | 28 | 1.0 | 5.0 | 0.01 | 0.94 | 0.58 | 94 | 1008.1 |
| 20260506131029 | 44 | 42 | 3.0 | 5.0 | 0.01 | 0.94 | 0.58 | 94 | 1008.0 |
| 20260506130543 | 44 | 20 | 0.0 | 0.0 | 0.01 | 0.94 | 0.58 | 95 | 1008.2 |
| 20260506130100 | 44 | 27 | 0.0 | 0.0 | 0.02 | 0.94 | 0.58 | 95 | 1008.3 |
| 20260506125027 | 44 | 351 | 1.0 | 3.0 | 0.02 | 0.94 | 0.58 | 94 | 1008.3 |
| 20260506124553 | 44 | 19 | 0.0 | 3.0 | 0.02 | 0.94 | 0.58 | 95 | 1008.4 |
| 20260506124059 | 44 | 10 | 1.0 | 3.0 | 0.02 | 0.94 | 0.58 | 95 | 1008.4 |
| 20260506123539 | 44 | 9 | 0.0 | 3.0 | 0.02 | 0.94 | 0.58 | 95 | 1008.3 |
| 20260506122529 | 44 | 350 | 3.0 | 5.0 | 0.02 | 0.94 | 0.58 | 95 | 1008.3 |
| 20260506122052 | 44 | 9 | 1.0 | 4.0 | 0.01 | 0.93 | 0.57 | 95 | 1008.3 |